EA1EI-13 Weather Reports


time (UTC)temp
C
wind
direction
speed
KPH
gust
KPH
rain 1hr
cm
rain 24hr
cm
rain mn
cm
humidity
%
barometer
mb
20260506200004 14 61 0.0 0.0 0.00 0.00 0.00 60 1011.2
20260506194005 15 61 0.0 0.0 0.00 0.00 0.00 56 1011.1
20260506193005 15 39 0.0 0.0 0.00 0.00 0.00 55 1011.1
20260506192005 15 56 0.0 0.0 0.00 0.00 0.00 54 1011.0
20260506183005 16 81 0.0 0.0 0.00 0.00 0.00 52 1011.0
20260506182004 16 72 0.0 0.0 0.00 0.00 0.00 51 1010.9
20260506181005 16 34 0.0 0.0 0.00 0.00 0.00 51 1010.9
20260506173004 16 64 0.0 1.6 0.00 0.00 0.00 50 1011.0
20260506171005 16 110 0.0 0.0 0.00 0.00 0.00 48 1011.1
20260506170005 16 110 0.0 0.0 0.00 0.00 0.00 49 1011.2
20260506165004 16 115 0.0 0.0 0.00 0.00 0.00 47 1011.2
20260506163004 16 109 0.0 0.0 0.00 0.00 0.00 50 1011.4
20260506162005 16 95 0.0 0.0 0.00 0.00 0.00 50 1011.5
20260506161005 16 114 0.0 0.0 0.00 0.00 0.00 50 1011.5
20260506155004 16 80 0.0 0.0 0.00 0.00 0.00 49 1011.7
20260506153005 17 207 0.0 0.0 0.00 0.00 0.00 49 1011.7
20260506152005 16 108 0.0 0.0 0.00 0.00 0.00 49 1011.8
20260506151005 16 114 0.0 0.0 0.00 0.00 0.00 50 1011.9
20260506150004 16 101 0.0 0.0 0.00 0.00 0.00 51 1012.0
20260506143004 17 105 0.0 3.2 0.00 0.00 0.00 50 1012.3
20260506142005 17 103 0.0 0.0 0.00 0.00 0.00 50 1012.5
20260506141005 16 66 0.0 0.0 0.00 0.00 0.00 51 1012.6
20260506140004 16 89 0.0 0.0 0.00 0.00 0.00 52 1012.7
20260506135004 16 236 0.0 0.0 0.00 0.00 0.00 52 1012.8
20260506134004 15 214 0.0 0.0 0.00 0.00 0.00 52 1013.0
20260506133004 15 121 0.0 0.0 0.00 0.00 0.00 52 1013.1
20260506132005 15 114 0.0 1.6 0.00 0.00 0.00 54 1013.1
20260506131005 15 109 0.0 0.0 0.00 0.00 0.00 53 1013.1
20260506125004 15 66 0.0 0.0 0.00 0.00 0.00 56 1013.3
20260506124005 15 131 0.0 1.6 0.00 0.00 0.00 55 1013.4
20260506123004 14 103 0.0 0.0 0.00 0.00 0.00 56 1013.5
20260506122004 14 94 0.0 1.6 0.00 0.00 0.00 56 1013.5
20260506121004 15 60 0.0 0.0 0.00 0.00 0.00 56 1013.6
20260506120005 15 73 0.0 0.0 0.00 0.00 0.00 54 1013.7
20260506115004 15 184 0.0 0.0 0.00 0.00 0.00 54 1013.7
20260506114005 15 331 0.0 0.0 0.00 0.00 0.00 53 1013.9
20260506113004 16 29 0.0 0.0 0.00 0.00 0.00 54 1014.0
20260506112004 15 103 0.0 0.0 0.00 0.00 0.00 55 1014.0
20260506111004 15 51 0.0 0.0 0.00 0.00 0.00 55 1014.2
20260506105005 14 55 0.0 0.0 0.00 0.00 0.00 56 1014.2
20260506104003 13 347 0.0 0.0 0.00 0.00 0.00 57 1014.3
20260506103004 13 60 0.0 0.0 0.00 0.00 0.00 58 1014.3
20260506101004 12 100 0.0 1.6 0.00 0.00 0.00 61 1014.4
20260506100004 12 56 0.0 0.0 0.00 0.00 0.00 64 1014.5
20260506095004 11 65 0.0 1.6 0.00 0.00 0.00 67 1014.5
20260506094005 11 76 0.0 0.0 0.00 0.00 0.00 69 1014.5
20260506093005 11 39 0.0 0.0 0.00 0.00 0.00 69 1014.6
20260506092004 11 89 0.0 0.0 0.00 0.00 0.00 69 1014.6
20260506091004 11 75 0.0 0.0 0.00 0.00 0.00 71 1014.6
20260506085004 10 83 0.0 1.6 0.00 0.00 0.00 77 1014.5
20260506084004 10 76 0.0 0.0 0.00 0.00 0.00 81 1014.6
20260506083005 10 88 0.0 0.0 0.00 0.00 0.00 83 1014.6
20260506082005 9 88 0.0 0.0 0.00 0.00 0.00 84 1014.6
20260506073004 7 103 0.0 0.0 0.00 0.00 0.00 87 1014.7
20260506072004 7 104 0.0 0.0 0.00 0.00 0.00 88 1014.7
20260506071004 6 105 0.0 0.0 0.00 0.00 0.00 89 1014.8
20260506062004 3 104 0.0 0.0 0.00 0.00 0.00 93 1014.7
20260506061004 3 104 0.0 0.0 0.00 0.00 0.00 93 1014.6
20260506051005 3 109 0.0 0.0 0.00 0.00 0.00 93 1014.2
20260506043005 3 109 0.0 0.0 0.00 0.00 0.00 93 1014.2
20260506042005 3 109 0.0 0.0 0.00 0.00 0.00 93 1014.2
20260506040004 3 109 0.0 0.0 0.00 0.00 0.00 93 1014.3
20260506035004 3 109 0.0 0.0 0.00 0.00 0.00 93 1014.4
20260506034004 4 109 0.0 0.0 0.00 0.00 0.00 92 1014.4
20260506033005 4 109 0.0 0.0 0.00 0.00 0.00 92 1014.4
20260506032004 5 109 0.0 0.0 0.00 0.00 0.00 92 1014.5
20260506031004 5 110 0.0 0.0 0.00 0.00 0.00 92 1014.5
20260506030005 5 110 0.0 0.0 0.00 0.00 0.00 91 1014.5
20260506025005 5 110 0.0 0.0 0.00 0.00 0.00 91 1014.4
20260506024005 5 111 0.0 0.0 0.00 0.00 0.00 92 1014.4
20260506022004 5 111 0.0 0.0 0.00 0.00 0.00 92 1014.3
20260506021004 5 111 0.0 0.0 0.00 0.00 0.00 92 1014.2
20260506020004 5 111 0.0 0.0 0.00 0.00 0.00 92 1014.1
20260506015004 5 111 0.0 0.0 0.00 0.00 0.00 91 1014.2
20260506014004 5 111 0.0 0.0 0.00 0.00 0.00 91 1014.3
20260506013005 5 111 0.0 0.0 0.00 0.00 0.00 90 1014.4
20260506012005 5 111 0.0 0.0 0.00 0.00 0.00 90 1014.5
20260506011004 6 188 0.0 0.0 0.00 0.00 0.00 90 1014.4
20260506010004 6 188 0.0 0.0 0.00 0.00 0.00 90 1014.4
20260506005004 6 188 0.0 0.0 0.00 0.00 0.00 91 1014.6
20260506004004 6 188 0.0 0.0 0.00 0.00 0.00 91 1014.6
20260506003005 6 188 0.0 0.0 0.00 0.00 0.00 90 1014.7
20260506001004 6 188 0.0 0.0 0.00 0.00 0.00 89 1014.7
20260506000005 6 188 0.0 0.0 0.00 0.00 0.00 89 1014.6
20260505235004 6 190 0.0 0.0 0.00 0.00 0.00 89 1014.7
20260505234004 7 190 0.0 0.0 0.00 0.00 0.00 88 1014.7
20260505232005 7 191 0.0 0.0 0.00 0.00 0.00 86 1014.7
20260505231004 8 192 0.0 0.0 0.00 0.00 0.00 86 1014.6
20260505230004 7 192 0.0 0.0 0.00 0.00 0.00 87 1014.6
20260505223004 7 192 0.0 0.0 0.00 0.00 0.00 86 1014.8
20260505222004 7 192 0.0 0.0 0.00 0.00 0.00 86 1014.8
20260505221004 7 192 0.0 0.0 0.00 0.00 0.00 86 1014.8
20260505220005 8 192 0.0 0.0 0.00 0.00 0.00 85 1014.7
20260505215005 8 198 0.0 0.0 0.00 0.00 0.00 83 1014.7
20260505212005 10 202 0.0 0.0 0.00 0.00 0.00 79 1014.5
20260505211004 10 202 0.0 0.0 0.00 0.00 0.00 79 1014.6
20260505210004 10 202 0.0 0.0 0.00 0.00 0.00 78 1014.6
20260505205004 10 203 0.0 0.0 0.00 0.00 0.00 77 1014.5
20260505204004 10 203 0.0 0.0 0.00 0.00 0.00 78 1014.4
20260505202005 10 208 0.0 0.0 0.00 0.00 0.00 76 1014.3
20260505201005 10 76 0.0 0.0 0.00 0.00 0.00 74 1014.3